Weather History for Kelso-Longview, WA

Change the Weather History Date:

Friday, November 15, 2013

  Actual Average Record
Temperature  
Mean Temperature 46 °F -  
Max Temperature 48 °F 49 °F 64 °F (2001)
Min Temperature 44 °F 38 °F 19 °F (2014)
Degree Days  
Heating Degree Days 19    
Moisture  
Dew Point 41 °F    
Average Humidity 84    
Maximum Humidity 93    
Minimum Humidity 81    
Precipitation  
Precipitation 0.46 in - - ()
Sea Level Pressure  
Sea Level Pressure 29.90 in    
Wind  
Wind Speed 5 mph (West)    
Max Wind Speed 6 mph    
Max Gust Speed -    
Visibility 9 miles    
Events      
Averages and records for this station are not official NWS values.
T = Trace of Precipitation, MM = Missing Value Source: NWS Daily Summary

Daily Weather History Graph

Daily Weather History Graph

Search for Another Location

Airport:

Trip Planner

Search our weather history database for the weather conditions in past years. The results will help you decide how hot, cold, wet, or windy it might be!

Date:

Astronomy

Nov. 15, 2013 Rise Set
Actual Time 7:12 AM PST 4:39 PM PST
Civil Twilight 6:40 AM PST 5:11 PM PST
Nautical Twilight 6:03 AM PST 5:48 PM PST
Astronomical Twilight 5:28 AM PST 6:23 PM PST
Moon 3:43 PM PST (11/15) 5:09 AM PST (11/15)
Length of Visible Light 10h 31m
Length of Day
9h 26m
Waxing Gibbous, 97% of the Moon is Illuminated
Nov 15
Waxing Gibbous
Nov 17
Full
Nov 25
Last Quarter
Dec 2
New
Dec 9
First Quarter

Hourly Weather History & Observations

Time (PST) Temp. Dew Point Humidity Pressure Visibility Wind Dir Wind Speed Gust Speed Precip Events Conditions
12:15 AM 44.6 °F 39.2 °F 81% 30.13 in 10.0 mi North - - N/A   Overcast
12:35 AM 44.6 °F 39.2 °F 81% 30.13 in 10.0 mi North - - N/A   Overcast
12:55 AM 44.6 °F 39.2 °F 81% 30.13 in 10.0 mi North - - N/A   Overcast
1:15 AM 44.6 °F 41.0 °F 87% 30.12 in 10.0 mi North - - N/A   Overcast
1:35 AM 44.6 °F 39.2 °F 81% 30.12 in 10.0 mi North - - N/A   Overcast
1:55 AM 44.6 °F 41.0 °F 87% 30.12 in 10.0 mi North - - N/A   Overcast
2:15 AM 44.6 °F 39.2 °F 81% 30.12 in 10.0 mi North - - N/A   Overcast
2:35 AM 44.6 °F 39.2 °F 81% 30.12 in 10.0 mi North - - N/A   Overcast
2:55 AM 44.6 °F 39.2 °F 81% 30.12 in 10.0 mi North - - N/A   Overcast
3:15 AM 44.6 °F 39.2 °F 81% 30.12 in 10.0 mi North - - N/A   Overcast
3:35 AM 44.6 °F 39.2 °F 81% 30.10 in 10.0 mi North - - N/A   Overcast
3:55 AM 44.6 °F 39.2 °F 81% 30.10 in 10.0 mi North - - N/A   Overcast
4:15 AM 44.6 °F 39.2 °F 81% 30.10 in 10.0 mi North - - N/A   Overcast
4:35 AM 44.6 °F 39.2 °F 81% 30.10 in 10.0 mi North - - N/A   Overcast
4:55 AM 44.6 °F 39.2 °F 81% 30.09 in 10.0 mi North - - N/A   Overcast
5:15 AM 44.6 °F 41.0 °F 87% 30.08 in 10.0 mi North - - N/A   Overcast
5:35 AM 44.6 °F 39.2 °F 81% 30.09 in 10.0 mi North - - N/A   Overcast
5:55 AM 44.6 °F 41.0 °F 87% 30.08 in 10.0 mi North - - N/A   Overcast
6:15 AM 44.6 °F 39.2 °F 81% 30.08 in 10.0 mi North - - N/A   Overcast
6:35 AM 44.6 °F 39.2 °F 81% 30.07 in 10.0 mi North - - N/A   Overcast
6:55 AM 44.6 °F 39.2 °F 81% 30.09 in 7.0 mi North - - N/A   Overcast
7:15 AM 44.6 °F 39.2 °F 81% 30.07 in 10.0 mi North - - N/A   Overcast
7:35 AM 44.6 °F 39.2 °F 81% 30.07 in 10.0 mi North - - N/A   Overcast
7:55 AM 44.6 °F 39.2 °F 81% 30.07 in 10.0 mi North - - N/A   Overcast
8:15 AM 44.6 °F 39.2 °F 81% 30.06 in 10.0 mi North - - N/A   Overcast
8:35 AM 44.6 °F 41.0 °F 87% 30.06 in 8.0 mi North - - N/A   Overcast
8:55 AM 44.6 °F 41.0 °F 87% 30.05 in 10.0 mi North - - N/A   Overcast
9:15 AM 44.6 °F 41.0 °F 87% 30.04 in 9.0 mi North - - N/A   Overcast
9:35 AM 44.6 °F 41.0 °F 87% 30.03 in 4.0 mi North - - N/A   Overcast
9:55 AM 44.6 °F 41.0 °F 87% 30.02 in 3.0 mi North - - N/A   Overcast
10:15 AM 46.4 °F 42.8 °F 87% 30.01 in 10.0 mi North - - N/A   Mostly Cloudy
10:35 AM 46.4 °F 41.0 °F 81% 30.01 in 10.0 mi North - - N/A   Overcast
10:55 AM 46.4 °F 41.0 °F 81% 29.99 in 10.0 mi North - - N/A   Overcast
11:15 AM 46.4 °F 41.0 °F 81% 29.98 in 10.0 mi North - - N/A   Overcast
11:35 AM 46.4 °F 41.0 °F 81% 29.97 in 10.0 mi North - - N/A   Overcast
11:55 AM 46.4 °F 41.0 °F 81% 29.96 in 9.0 mi North - - N/A   Overcast
12:15 PM 46.4 °F 41.0 °F 81% 29.95 in 9.0 mi North - - N/A   Overcast
12:35 PM 46.4 °F 41.0 °F 81% 29.93 in 9.0 mi North - - 0.01 in   Overcast
12:55 PM 46.4 °F 41.0 °F 81% 29.92 in 9.0 mi North - - 0.01 in   Overcast
1:15 PM 46.4 °F 42.8 °F 87% 29.90 in 10.0 mi North - - 0.01 in   Overcast
1:35 PM 46.4 °F 41.0 °F 81% 29.90 in 10.0 mi North - - 0.01 in   Overcast
1:55 PM 46.4 °F 41.0 °F 81% 29.88 in 10.0 mi North - - 0.01 in   Overcast
2:15 PM 46.4 °F 41.0 °F 81% 29.87 in 10.0 mi North - - N/A   Overcast
2:35 PM 46.4 °F 42.8 °F 87% 29.86 in 10.0 mi North - - 0.01 in   Overcast
2:55 PM 46.4 °F 41.0 °F 81% 29.85 in 8.0 mi North - - 0.01 in   Overcast
3:15 PM 46.4 °F 41.0 °F 81% 29.83 in 10.0 mi North - - 0.01 in   Overcast
3:35 PM 46.4 °F 41.0 °F 81% 29.82 in 10.0 mi North - - 0.01 in   Overcast
3:55 PM 46.4 °F 41.0 °F 81% 29.81 in 10.0 mi North - - 0.02 in   Overcast
4:15 PM 46.4 °F 41.0 °F 81% 29.79 in 9.0 mi North - - 0.01 in   Overcast
4:35 PM 46.4 °F 42.8 °F 87% 29.78 in 8.0 mi North - - 0.03 in   Overcast
4:55 PM 46.4 °F 42.8 °F 87% 29.76 in 8.0 mi North - - 0.05 in   Overcast
5:15 PM 46.4 °F 42.8 °F 87% 29.74 in 9.0 mi North - - 0.01 in   Overcast
5:35 PM 46.4 °F 42.8 °F 87% 29.72 in 10.0 mi North - - 0.02 in   Overcast
5:55 PM 46.4 °F 41.0 °F 81% 29.71 in 10.0 mi North - - 0.04 in   Overcast
6:15 PM 46.4 °F 41.0 °F 81% 29.70 in 10.0 mi North - - 0.02 in   Overcast
6:35 PM 46.4 °F 42.8 °F 87% 29.68 in 10.0 mi North - - 0.05 in   Overcast
6:55 PM 46.4 °F 42.8 °F 87% 29.67 in 10.0 mi North - - 0.07 in   Overcast
7:15 PM 46.4 °F 42.8 °F 87% 29.68 in 10.0 mi North - - 0.04 in   Overcast
7:35 PM 46.4 °F 42.8 °F 87% 29.65 in 10.0 mi North - - 0.08 in   Overcast
7:55 PM 46.4 °F 42.8 °F 87% 29.64 in 10.0 mi North - - 0.09 in   Overcast
8:15 PM 46.4 °F 42.8 °F 87% 29.62 in 10.0 mi North - - 0.01 in   Overcast
8:35 PM 46.4 °F 42.8 °F 87% 29.60 in 10.0 mi North - - 0.01 in   Overcast
8:55 PM 46.4 °F 42.8 °F 87% 29.58 in 10.0 mi North - - 0.01 in   Overcast
9:15 PM 46.4 °F 42.8 °F 87% 29.56 in 8.0 mi North - - N/A   Overcast
9:35 PM 46.4 °F 42.8 °F 87% 29.56 in 8.0 mi North - - 0.01 in   Overcast
9:55 PM 46.4 °F 42.8 °F 87% 29.55 in 7.0 mi North - - 0.03 in   Overcast
10:15 PM 46.4 °F 42.8 °F 87% 29.56 in 8.0 mi North - - 0.02 in   Overcast
10:35 PM 46.4 °F 42.8 °F 87% 29.56 in 4.0 mi North - - 0.08 in   Overcast
10:55 PM 46.4 °F 42.8 °F 87% 29.55 in 10.0 mi North - - 0.12 in   Overcast
11:15 PM 46.4 °F 44.6 °F 93% 29.56 in 10.0 mi North - - N/A   Overcast
11:35 PM 48.2 °F 42.8 °F 82% 29.56 in 10.0 mi West 5.8 mph - N/A   Mostly Cloudy
11:55 PM 48.2 °F 42.8 °F 82% 29.55 in 10.0 mi West 3.5 mph - N/A   Overcast